Temp
22 22 22 22 21 21 20 20 19 19 19 19 18 18 17 17 17 16 16 16 16 16 16 16 16 16 16 16 16 16 16 15 15 15 15 15 15 15 15 14 14 14
22 22 22 22 21 21 20 20 20 19 19 19 18 18 18 17 17 17 16 16 16 16 16 16 16 16 16 16 16 16 16 15 15 15 15 15 15 15 15 15 14 14
22 22 22 22 21 21 21 20 20 19 19 19 18 18 18 18 17 17 16 16 16 16 16 16 16 16 16 16 16 15 15 15 15 15 15 15 15 15 15 15 14 14
22 22 22 22 21 21 20 20 20 19 19 18 18 18 17 17 17 16 16 16 16 16 16 16 16 16 16 16 15 15 15 15 15 15 15 15 15 14 14 14 14 14
22 22 22 22 21 21 20 20 20 19 19 18 18 17 17 17 16 17 16 16 16 16 16 16 16 16 15 15 15 15 15 15 15 15 14 14 14 14 14 14 14 14
22 22 21 21 21 20 20 20 20 19 19 18 18 17 16 16 16 17 16 16 16 16 16 15 15 15 15 15 15 15 15 14 14 14 14 14 14 14 14 14 14 14
22 21 21 21 20 19 20 20 19 19 18 18 17 17 16 16 17 16 16 16 16 16 15 15 15 15 15 15 15 15 15 14 14 14 14 14 14 14 14 14 14 14
22 22 21 20 19 19 19 20 19 19 18 18 18 17 17 16 16 16 16 16 16 16 16 16 16 15 15 15 15 15 14 14 14 14 14 14 14 14 14 14 14 14
21 21 20 20 19 19 19 19 19 18 18 18 18 17 17 16 16 16 16 16 16 16 16 16 16 15 15 15 15 15 15 14 14 14 14 14 14 14 14 14 14 14
19 19 19 19 19 18 19 19 19 18 18 18 18 17 17 16 16 16 16 16 16 16 16 16 16 15 15 15 15 15 15 15 14 14 14 14 14 14 14 14 14 14
18 19 19 19 19 19 19 19 19 18 18 18 18 17 17 17 17 16 16 16 16 16 16 16 16 15 15 15 15 15 15 15 14 14 14 14 14 14 14 14 14 14
19 19 19 19 19 19 19 19 19 18 18 18 18 17 17 17 17 17 17 17 17 16 16 16 16 16 16 15 15 15 15 15 14 14 14 14 14 14 14 14 14 14
18 19 19 19 18 18 18 18 18 18 18 18 17 17 17 17 17 17 17 17 17 17 17 17 16 16 16 16 15 15 15 15 15 15 15 15 15 14 14 14 14 13
18 18 17 17 17 17 18 18 18 18 18 18 17 17 17 18 17 17 17 17 17 17 17 16 16 16 16 16 15 15 15 15 15 15 15 15 15 15 14 14 14 13
17 16 16 17 17 17 17 17 17 17 17 18 17 17 18 18 17 17 17 17 17 16 16 16 16 16 16 15 15 15 15 15 15 15 15 15 15 14 14 14 14 14
16 14 15 16 17 17 17 17 16 17 17 17 17 17 18 18 17 17 17 16 16 16 16 16 16 16 16 15 15 15 15 15 15 15 15 14 14 14 14 14 14 14
16 15 15 16 17 17 17 17 17 17 18 17 17 18 18 18 17 17 16 16 16 16 16 16 16 16 16 15 15 15 15 15 15 15 14 14 14 14 14 14 14 13
16 17 17 17 17 17 17 17 18 18 18 17 17 18 18 17 17 17 16 16 16 16 16 16 16 16 16 16 15 15 15 15 15 14 14 14 14 14 14 14 13 13
17 17 17 17 17 17 17 18 18 18 18 17 17 18 18 17 17 17 17 17 17 17 17 16 16 16 16 15 15 15 15 15 15 14 14 14 14 14 14 13 13 13
17 17 17 17 17 17 17 18 18 18 18 17 17 17 17 17 17 17 17 17 17 17 16 16 16 16 16 15 15 15 15 15 15 14 14 14 14 14 13 13 13 13
17 17 17 18 17 17 17 17 17 18 18 17 17 17 17 18 18 17 17 17 17 16 16 16 16 16 16 15 15 15 15 15 15 14 14 14 14 13 13 13 13 12
17 17 17 17 16 16 16 17 18 18 18 18 17 17 17 18 18 17 17 17 17 16 16 16 16 16 16 15 15 15 15 15 14 14 14 14 13 13 13 13 13 12
17 17 16 16 16 16 17 17 18 19 18 18 17 17 17 18 18 18 17 17 17 16 16 16 16 16 15 15 15 15 15 14 14 14 14 13 13 13 13 13 12 12
16 16 16 16 16 17 17 17 18 19 18 18 18 18 18 18 18 18 17 17 17 16 16 16 16 15 15 15 15 15 14 14 14 14 13 13 13 13 13 12 12 12
16 16 16 16 17 17 17 18 18 19 19 18 18 18 18 18 18 17 17 17 16 16 16 15 15 15 15 15 15 14 14 14 13 13 13 13 13 12 12 12 11 11
16 16 17 17 17 18 17 17 18 18 18 17 17 17 17 18 18 17 17 16 16 16 16 15 15 15 15 14 14 14 14 14 13 13 13 13 12 12 12 12 11 11
Height
1537 1538 1539 1540 1541 1541 1541 1541 1541 1541 1541 1542 1542 1542 1543 1543 1543 1544 1545 1545 1546 1546 1546 1546 1546 1546 1546 1546 1546 1546 1546 1546 1545 1545 1544 1544 1544 1544 1544 1544 1544 1544
1535 1536 1537 1538 1538 1539 1539 1539 1540 1540 1540 1540 1541 1541 1541 1541 1542 1543 1544 1544 1545 1545 1545 1546 1545 1545 1545 1545 1545 1545 1545 1545 1544 1544 1543 1543 1543 1543 1543 1543 1543 1543
1532 1533 1534 1535 1536 1536 1537 1538 1539 1539 1539 1540 1540 1540 1540 1540 1541 1542 1543 1543 1544 1544 1544 1544 1544 1544 1544 1544 1544 1544 1544 1544 1544 1543 1542 1541 1541 1541 1542 1542 1542 1542
1530 1531 1532 1533 1534 1535 1535 1536 1537 1538 1539 1539 1539 1539 1539 1539 1540 1540 1541 1542 1542 1543 1543 1543 1543 1543 1543 1543 1543 1543 1543 1543 1543 1542 1541 1540 1540 1540 1540 1540 1540 1540
1528 1529 1530 1532 1532 1533 1534 1535 1536 1537 1538 1538 1538 1539 1538 1538 1539 1539 1540 1541 1541 1542 1542 1543 1543 1542 1542 1541 1541 1541 1542 1542 1542 1541 1540 1539 1539 1538 1538 1538 1538 1539
1526 1528 1529 1530 1531 1532 1532 1533 1535 1536 1536 1537 1537 1538 1538 1538 1538 1538 1539 1539 1540 1540 1541 1542 1542 1541 1541 1540 1540 1540 1540 1540 1541 1540 1539 1538 1537 1536 1536 1536 1536 1536
1524 1525 1527 1529 1530 1531 1532 1532 1533 1534 1534 1535 1536 1536 1537 1537 1537 1537 1537 1538 1538 1539 1539 1540 1540 1540 1540 1539 1538 1538 1539 1539 1539 1539 1538 1537 1535 1534 1534 1534 1534 1534
1519 1522 1526 1529 1531 1531 1532 1532 1532 1532 1532 1533 1534 1534 1535 1535 1535 1535 1536 1536 1536 1537 1537 1538 1539 1539 1539 1538 1537 1537 1537 1537 1537 1536 1536 1535 1534 1533 1532 1532 1531 1532
1517 1521 1525 1528 1530 1531 1531 1531 1531 1531 1531 1531 1532 1532 1533 1534 1534 1534 1534 1534 1534 1535 1535 1536 1537 1537 1537 1537 1536 1536 1535 1535 1535 1534 1534 1533 1532 1531 1530 1530 1529 1529
1518 1524 1528 1529 1529 1530 1530 1530 1531 1531 1531 1530 1530 1531 1531 1532 1532 1532 1532 1532 1532 1532 1533 1533 1534 1535 1535 1535 1534 1534 1533 1532 1532 1532 1531 1531 1530 1529 1528 1527 1527 1527
1517 1523 1526 1526 1527 1528 1528 1529 1530 1529 1529 1529 1529 1529 1530 1530 1530 1530 1530 1530 1530 1530 1530 1531 1531 1532 1532 1532 1532 1531 1530 1530 1529 1529 1529 1528 1527 1526 1526 1525 1525 1525
1514 1518 1520 1522 1523 1524 1526 1527 1528 1528 1529 1529 1529 1529 1529 1528 1528 1528 1528 1528 1528 1528 1528 1528 1529 1529 1529 1529 1529 1529 1528 1528 1527 1526 1526 1525 1525 1524 1523 1523 1523 1523
1514 1516 1519 1524 1525 1525 1526 1527 1527 1527 1528 1529 1529 1528 1527 1527 1526 1526 1526 1526 1526 1526 1526 1526 1526 1527 1527 1527 1527 1527 1526 1525 1524 1524 1523 1523 1522 1521 1521 1520 1520 1520
1509 1513 1518 1523 1526 1528 1528 1526 1526 1525 1524 1526 1527 1526 1526 1525 1524 1524 1524 1524 1524 1524 1524 1524 1524 1524 1525 1525 1525 1525 1524 1523 1522 1522 1521 1520 1520 1519 1518 1518 1518 1518
1501 1507 1513 1517 1521 1524 1525 1524 1524 1523 1520 1520 1522 1523 1524 1523 1522 1522 1522 1522 1522 1522 1522 1522 1522 1522 1523 1523 1523 1522 1522 1521 1520 1520 1519 1518 1517 1516 1516 1516 1516 1515
1497 1504 1508 1512 1514 1516 1519 1520 1521 1519 1517 1516 1518 1520 1521 1521 1520 1520 1520 1520 1520 1519 1520 1520 1520 1520 1521 1521 1521 1520 1519 1519 1518 1517 1516 1515 1514 1514 1514 1513 1513 1513
1496 1500 1503 1506 1509 1511 1514 1516 1515 1514 1514 1514 1515 1517 1518 1518 1518 1517 1517 1517 1517 1517 1518 1518 1518 1519 1518 1518 1518 1517 1517 1516 1515 1514 1513 1512 1511 1511 1511 1511 1511 1510
1492 1495 1496 1498 1500 1502 1505 1507 1508 1509 1510 1510 1512 1514 1515 1515 1515 1515 1515 1515 1515 1516 1516 1516 1516 1516 1516 1516 1516 1515 1514 1513 1513 1512 1511 1510 1509 1509 1509 1508 1508 1507
1484 1488 1490 1492 1493 1495 1498 1500 1502 1504 1506 1507 1508 1511 1513 1513 1513 1513 1513 1513 1513 1513 1514 1514 1514 1514 1514 1514 1513 1513 1512 1511 1510 1509 1508 1507 1507 1506 1506 1505 1504 1503
1477 1481 1485 1487 1488 1490 1493 1496 1499 1501 1503 1505 1506 1509 1510 1510 1510 1510 1511 1511 1511 1511 1512 1512 1512 1512 1512 1512 1511 1511 1510 1509 1508 1506 1505 1505 1504 1504 1503 1502 1501 1500
1474 1477 1479 1481 1484 1489 1493 1496 1498 1500 1501 1502 1503 1505 1506 1507 1507 1508 1508 1509 1509 1509 1509 1509 1509 1510 1509 1509 1508 1508 1507 1506 1505 1504 1503 1502 1502 1501 1500 1499 1498 1497
1471 1474 1477 1480 1485 1491 1495 1496 1497 1498 1498 1499 1500 1502 1503 1504 1505 1505 1506 1507 1507 1507 1507 1507 1507 1507 1507 1506 1506 1505 1504 1503 1503 1502 1501 1500 1499 1499 1497 1496 1494 1493
1469 1473 1478 1483 1488 1491 1493 1494 1495 1495 1496 1497 1498 1499 1500 1501 1502 1502 1503 1504 1505 1505 1505 1505 1505 1505 1505 1504 1503 1502 1501 1501 1500 1500 1499 1498 1497 1496 1494 1493 1491 1490
1468 1472 1478 1483 1487 1489 1490 1491 1492 1493 1494 1495 1496 1496 1498 1499 1500 1501 1502 1502 1502 1502 1502 1502 1503 1503 1502 1501 1501 1500 1499 1499 1498 1497 1496 1495 1494 1493 1491 1490 1489 1489
1468 1472 1477 1481 1483 1485 1486 1488 1489 1491 1492 1493 1494 1495 1496 1497 1497 1498 1499 1499 1499 1500 1500 1500 1501 1501 1500 1499 1499 1498 1497 1496 1496 1495 1493 1492 1491 1489 1488 1487 1487 1486
1466 1470 1475 1478 1480 1482 1484 1485 1487 1489 1490 1490 1492 1493 1494 1495 1494 1494 1495 1495 1495 1496 1497 1498 1498 1498 1497 1497 1496 1496 1495 1494 1493 1492 1491 1489 1487 1486 1485 1485 1484 1484
Wind_Speed
19 17 16 16 17 18 18 17 17 17 17 16 15 14 13 13 12 12 11 10 8 7 8 8 7 7 7 7 7 7 7 7 7 7 8 8 8 9 9 9 10 10
21 19 17 18 19 19 17 17 17 17 17 15 14 14 13 13 12 11 10 9 8 8 8 7 6 7 8 8 8 9 9 8 7 7 8 8 9 10 10 11 11 12
24 21 20 20 20 19 17 17 17 17 16 14 13 13 12 12 12 11 9 8 8 8 7 5 5 6 8 9 10 10 11 10 9 8 9 9 9 10 11 12 13 14
26 24 22 21 20 18 17 17 17 17 15 14 12 11 11 11 11 10 9 8 7 6 5 4 4 5 6 7 8 9 10 11 11 10 11 10 10 11 11 12 14 14
27 25 24 22 20 18 18 18 17 16 14 12 11 11 11 11 11 11 9 6 4 4 4 4 4 5 5 6 6 7 8 9 10 10 12 12 11 12 12 13 14 15
28 27 26 23 21 20 19 18 16 15 13 12 11 11 11 11 12 12 9 6 4 4 4 4 5 5 6 7 8 9 9 10 10 10 12 12 12 12 13 15 16 16
29 29 27 24 21 20 19 17 16 15 14 13 13 12 11 11 11 11 9 7 6 5 4 5 6 7 8 8 10 11 12 12 12 11 12 13 13 13 13 14 16 17
30 30 28 24 21 20 19 17 17 16 15 15 14 13 12 10 9 9 8 8 7 5 5 6 8 9 9 10 11 12 14 14 14 13 14 14 14 14 14 15 16 18
32 30 28 25 22 21 19 18 17 16 17 16 14 13 12 10 9 9 9 9 8 7 7 8 10 11 11 12 13 14 15 15 15 15 16 16 15 14 14 15 17 19
32 28 26 24 22 21 20 18 17 16 17 16 14 14 13 11 10 10 10 11 10 9 9 10 12 14 15 15 15 15 16 16 16 17 16 16 15 14 15 16 18 19
31 27 27 25 23 22 21 18 17 17 19 16 14 15 14 12 12 12 12 12 11 11 11 12 14 16 17 17 16 16 17 17 16 16 16 15 14 14 15 16 18 20
34 31 30 26 25 23 21 19 18 19 19 17 15 16 15 14 14 13 13 13 12 12 12 13 15 17 18 18 18 17 16 15 14 14 14 14 14 14 15 16 18 20
33 31 29 25 24 23 20 19 19 19 19 17 18 19 18 17 15 14 13 13 13 13 13 14 16 18 19 19 18 16 14 13 13 13 13 14 14 15 16 17 18 19
34 29 28 25 23 21 20 20 19 19 17 17 21 23 20 18 16 14 14 14 14 14 15 16 17 18 19 18 16 14 12 12 13 13 14 15 16 17 17 18 18 19
37 29 27 26 22 22 22 22 22 21 17 18 25 26 21 18 16 15 16 16 16 16 17 17 17 17 17 15 13 12 11 12 13 14 15 16 17 18 19 19 19 19
37 28 27 28 27 25 26 25 23 21 19 23 28 26 22 19 17 17 18 18 18 18 18 17 16 15 13 12 12 12 12 13 15 16 17 18 18 19 20 20 20 19
34 28 29 32 30 27 27 26 24 23 23 27 29 26 22 20 18 19 19 18 18 19 18 17 15 13 11 11 12 13 14 16 17 18 19 20 21 21 22 22 21 20
35 31 31 35 34 31 31 28 24 26 29 29 28 26 23 21 20 20 20 19 19 20 19 18 16 13 12 13 14 14 16 18 19 20 22 22 23 23 23 24 24 23
39 35 34 37 37 36 34 29 26 29 31 29 28 26 24 23 22 21 20 20 20 20 19 17 16 15 15 15 16 16 17 19 21 23 24 25 24 24 25 26 26 26
40 37 37 39 39 38 34 27 26 30 31 29 28 27 26 24 23 21 21 21 21 19 18 17 16 16 16 17 18 19 19 20 23 25 26 26 26 26 26 27 27 28
37 36 38 41 41 39 33 26 26 29 29 28 29 28 27 25 23 22 22 21 20 19 18 18 17 17 18 19 20 20 21 22 24 25 26 26 27 27 26 25 27 28
38 37 38 41 40 35 29 25 26 29 28 27 28 28 27 25 23 23 22 20 19 18 18 19 19 19 20 21 21 22 23 24 25 25 26 27 27 25 23 22 24 28
40 37 37 39 38 30 24 25 28 28 27 27 27 28 27 26 24 23 22 20 18 18 18 19 20 21 22 23 23 24 24 24 24 25 27 27 25 23 22 22 23 27
40 38 36 38 35 26 23 27 29 26 25 25 26 26 26 25 24 22 21 19 17 17 18 20 22 23 24 24 24 24 24 24 24 25 25 23 22 22 22 22 22 24
39 39 35 35 31 23 21 26 27 24 23 24 25 26 25 25 25 24 23 21 19 18 19 21 23 24 24 25 24 23 24 24 24 23 21 21 21 22 21 20 20 21
40 40 35 34 31 23 20 24 25 24 25 26 27 26 26 27 29 29 27 25 23 22 22 23 24 24 24 24 23 24 25 24 22 21 20 20 21 20 19 18 19 20
Wind_Direction
217 220 224 228 228 226 225 225 227 229 228 228 231 236 241 241 234 229 232 235 237 239 245 249 257 270 274 272 272 266 261 262 262 263 267 273 278 278 275 270 268 271
216 217 221 227 227 222 220 222 225 225 223 225 229 234 236 234 228 225 227 229 229 234 243 253 272 285 284 280 276 271 267 266 265 264 265 268 272 274 274 271 269 270
215 214 218 224 223 218 215 218 220 220 222 225 228 232 233 229 223 218 217 218 224 237 251 268 289 297 294 287 281 281 283 283 283 279 275 276 278 278 277 273 271 271
216 215 218 223 222 217 215 216 216 217 221 224 228 230 223 213 204 199 199 204 218 235 247 266 298 313 311 301 294 293 293 293 294 290 285 284 285 286 284 280 278 275
217 216 217 221 221 216 216 216 215 215 218 221 223 219 206 194 186 181 180 185 203 221 230 255 300 327 329 325 322 319 314 308 302 294 290 290 290 289 288 286 284 282
219 220 219 220 219 217 217 215 212 212 214 215 211 203 194 186 182 180 181 187 202 215 229 259 296 322 327 325 323 322 319 315 311 301 295 296 297 293 290 287 285 284
219 222 221 219 219 221 220 214 210 208 207 206 200 193 189 186 183 185 194 210 220 226 244 270 289 304 312 312 309 308 305 303 302 300 298 300 301 298 295 291 288 285
218 222 221 218 219 224 223 215 210 207 205 204 198 192 191 190 189 193 206 222 228 238 258 272 281 289 294 295 292 290 290 289 289 292 296 299 298 297 297 296 292 288
216 220 220 217 219 226 226 218 212 207 208 209 202 197 201 202 202 207 217 229 235 244 258 270 279 284 285 284 280 280 283 285 285 289 294 296 294 293 296 296 294 291
214 218 221 221 223 228 228 221 215 213 213 214 209 207 212 215 215 220 228 236 243 251 261 272 280 281 281 279 277 280 286 289 289 291 292 292 290 291 295 297 296 293
208 212 219 222 226 229 230 225 219 217 216 216 216 216 219 222 223 229 235 241 250 258 266 275 279 281 281 279 279 284 290 294 293 292 291 290 290 292 296 298 296 293
206 211 213 217 225 227 227 226 221 219 219 221 224 222 223 225 226 233 240 247 256 261 267 274 280 284 282 280 282 286 290 294 295 293 291 290 291 294 296 297 294 292
205 211 209 214 230 233 230 230 225 219 220 228 231 227 226 226 227 235 245 253 259 262 269 277 281 281 279 278 280 282 286 294 297 293 288 288 290 294 296 295 294 292
203 205 203 209 229 240 239 237 228 221 227 235 233 231 230 228 229 238 250 256 260 265 272 277 277 274 274 275 275 275 284 294 294 290 287 289 292 295 297 294 291 290
203 194 197 204 213 224 233 236 232 234 240 232 228 232 234 230 231 242 252 257 263 269 274 274 273 270 269 269 270 275 285 291 293 294 297 300 301 301 299 294 291 290
198 186 194 201 200 208 222 230 235 242 237 224 225 233 234 232 235 244 252 259 265 270 271 269 267 267 267 268 273 280 286 290 294 297 301 305 306 305 301 296 292 294
198 199 202 200 199 206 216 225 236 241 229 222 227 232 232 233 237 244 251 259 265 266 264 260 260 266 272 277 281 284 287 291 294 296 299 301 305 306 304 299 294 293
212 216 206 196 197 203 209 219 233 232 223 221 226 230 232 234 238 244 251 259 262 260 255 254 259 267 273 279 283 286 289 291 291 293 294 295 300 303 302 299 294 290
218 215 204 196 196 201 209 219 226 222 218 220 225 230 234 236 239 245 252 257 259 256 255 260 266 271 276 282 285 285 286 287 288 289 290 293 297 299 298 295 291 288
220 214 208 204 200 201 209 218 219 217 217 220 224 231 235 238 241 247 252 256 258 258 261 268 275 280 286 288 287 286 285 285 286 287 288 291 294 297 296 293 289 286
224 218 213 207 201 204 214 223 221 217 217 219 224 230 236 239 244 248 253 256 259 262 266 272 279 284 287 287 286 285 285 286 287 287 286 288 293 297 297 293 290 286
224 219 213 205 201 207 222 230 223 218 218 220 225 231 237 243 247 250 254 257 260 265 270 275 280 284 286 285 284 283 284 286 287 286 286 290 294 297 297 294 291 284
221 217 211 203 201 210 227 230 222 220 223 224 228 234 239 245 249 251 254 257 262 269 273 277 281 283 284 283 282 283 284 284 286 287 290 294 296 298 298 295 290 285
221 213 204 199 202 217 237 234 225 225 228 229 233 240 245 251 254 254 254 257 263 271 274 278 281 281 281 282 283 283 283 285 290 293 295 297 298 298 297 294 290 288
216 207 199 199 207 224 241 236 229 230 234 236 240 245 251 258 260 257 254 254 256 261 268 274 277 278 280 282 283 284 287 293 298 298 298 301 299 296 292 290 289 288
213 208 204 206 213 228 242 240 238 240 241 242 247 252 259 266 262 256 252 249 246 251 264 272 273 274 280 284 284 287 293 298 299 298 301 302 298 294 292 290 290 288